Hanford, CA

2:54 PM PST on January 22, 2018 (GMT -0800)
Hanford Municipal

Weather History for KHJO - February, 2014

Change the Weather History Date:

Wednesday, February 19, 2014

  Actual Average Record
Temperature  
Mean Temperature 56 °F 51 °F  
Max Temperature 70 °F 63 °F 72 °F (2015)
Min Temperature 42 °F 40 °F 33 °F (2009)
Degree Days  
Heating Degree Days 9    
Month to date heating degree days 226  
Since 1 July heating degree days 1705  
Cooling Degree Days 0    
Month to date cooling degree days 0  
Year to date cooling degree days 0  
Growing Degree Days 6 (Base 50)    
Moisture  
Dew Point 43 °F    
Average Humidity 65    
Maximum Humidity 89    
Minimum Humidity 40    
Precipitation  
Precipitation 0.00 in 0.07 in 0.50 in (1998)
Month to date precipitation 0.55 1.12  
Year to date precipitation 0.66 3.16  
Since 1 July precipitation 1.05  
Snow  
Snow 0.00 in - - ()
Month to date snowfall 0.0  
Since 1 July snowfall 0.0  
Snow Depth 0.00 in    
Sea Level Pressure  
Sea Level Pressure 30.11 in    
Wind  
Wind Speed 9 mph (NW)    
Max Wind Speed 18 mph    
Max Gust Speed 24 mph    
Visibility 9 miles    
Events      
T = Trace of Precipitation, MM = Missing Value Source: NWS Daily Summary

Daily Weather History Graph

Daily Weather History Graph

Search for Another Location

Airport or City:

Trip Planner

Search our weather history database for the weather conditions in past years. The results will help you decide how hot, cold, wet, or windy it might be!

Date:

Astronomy

Feb. 19, 2014 Rise Set
Actual Time 6:41 AM PST 5:43 PM PST
Civil Twilight 6:15 AM PST 6:09 PM PST
Nautical Twilight 5:45 AM PST 6:39 PM PST
Astronomical Twilight 5:15 AM PST 7:09 PM PST
Moon 10:32 PM PST (2/19) 8:59 AM PST (2/19)
Length of Visible Light 11h 54m
Length of Day
11h 02m
Waning Gibbous, 79% of the Moon is Illuminated
Feb 19
Waning Gibbous
Feb 22
Last Quarter
Mar 1
New
Mar 8
First Quarter
Mar 16
Full

Hourly Weather History & Observations

Time (PST) Temp. Windchill Dew Point Humidity Pressure Visibility Wind Dir Wind Speed Gust Speed Precip Events Conditions
12:53 AM 48.0 °F - 43.0 °F 83% 30.09 in 8.0 mi West 6.9 mph - N/A   Clear
1:53 AM 46.0 °F - 41.0 °F 83% 30.09 in 7.0 mi Calm Calm - N/A   Clear
2:53 AM 45.0 °F 43.5 °F 41.0 °F 86% 30.09 in 6.0 mi NE 3.5 mph - N/A   Clear
3:53 AM 46.9 °F - 43.0 °F 86% 30.12 in 6.0 mi North 4.6 mph - N/A   Clear
4:53 AM 46.9 °F - 43.0 °F 86% 30.13 in 6.0 mi NNW 3.5 mph - N/A   Mostly Cloudy
5:53 AM 44.1 °F 42.5 °F 41.0 °F 89% 30.12 in 3.0 mi SW 3.5 mph - N/A   Clear
6:53 AM 42.1 °F 40.2 °F 39.0 °F 89% 30.13 in 5.0 mi West 3.5 mph - N/A   Clear
7:53 AM 46.9 °F - 39.0 °F 74% 30.16 in 10.0 mi NW 3.5 mph - N/A   Clear
8:53 AM 55.0 °F - 44.1 °F 67% 30.17 in 10.0 mi NNW 11.5 mph - N/A   Clear
9:53 AM 59.0 °F - 46.0 °F 62% 30.17 in 10.0 mi North 8.1 mph - N/A   Clear
10:53 AM 63.0 °F - 46.9 °F 56% 30.15 in 10.0 mi NNE 6.9 mph - N/A   Clear
11:53 AM 66.0 °F - 46.0 °F 48% 30.12 in 10.0 mi NNW 12.7 mph - N/A   Partly Cloudy
12:53 PM 66.0 °F - 46.0 °F 48% 30.08 in 10.0 mi NNW 9.2 mph - N/A   Clear
1:53 PM 68.0 °F - 45.0 °F 43% 30.07 in 10.0 mi NNW 12.7 mph 20.7 mph N/A   Clear
2:53 PM 69.1 °F - 45.0 °F 42% 30.06 in 10.0 mi NNW 15.0 mph - N/A   Partly Cloudy
3:53 PM 69.1 °F - 45.0 °F 42% 30.06 in 10.0 mi NNW 12.7 mph - N/A   Partly Cloudy
4:53 PM 66.9 °F - 45.0 °F 45% 30.05 in 10.0 mi NNW 13.8 mph - N/A   Clear
5:53 PM 64.9 °F - 45.0 °F 48% 30.06 in 10.0 mi NW 9.2 mph - N/A   Clear
6:53 PM 61.0 °F - 44.1 °F 54% 30.09 in 10.0 mi NW 10.4 mph - N/A   Clear
7:53 PM 60.1 °F - 44.1 °F 55% 30.10 in 10.0 mi NW 9.2 mph - N/A   Clear
8:53 PM 57.0 °F - 43.0 °F 59% 30.13 in 10.0 mi WNW 8.1 mph - N/A   Clear
9:53 PM 55.0 °F - 37.9 °F 53% 30.14 in 10.0 mi NW 13.8 mph - N/A   Clear
10:53 PM 54.0 °F - 36.0 °F 51% 30.14 in 10.0 mi NW 11.5 mph - N/A   Clear
11:53 PM 54.0 °F - 33.1 °F 45% 30.15 in 10.0 mi NW 11.5 mph - N/A   Clear